AirNav   Air Wisconsin Up To $57,000 Bonus
 
 1103 users online  

GA61 Kenley Field Airport
Brooks, Georgia, USA

GOING TO BROOKS?


FAA INFORMATION EFFECTIVE 15 JULY 2021

Location

FAA Identifier: GA61
Lat/Long: 33-16-08.4310N 084-29-49.7330W
33-16.140517N 084-29.828883W
33.2690086,-84.4971481
(estimated)
Elevation: 780 ft. / 238 m (estimated)
Variation: 02W (1985)
From city: 3 miles SW of BROOKS, GA
Time zone: UTC -4 (UTC -5 during Standard Time)
Zip code: 30205

Airport Operations

Airport use: Private use. Permission required prior to landing
Activation date: 06/1971
Control tower: no
ARTCC: ATLANTA CENTER
FSS: MACON FLIGHT SERVICE STATION
Attendance: UNATNDD
Wind indicator: yes
Segmented circle: no

Airport Communications

UNICOM: 122.8
WX ASOS at FFC (7 nm NW): 118.525 (770-487-1610)
WX AWOS-3 at HMP (11 nm NE): 124.825 (770-707-1719)
WX AWOS-3 at 6A2 (11 nm E): 119.750 (770-227-3934)
WX AWOS-3PT at CCO (14 nm W): 118.975 (770-254-1617)

Nearby radio navigation aids

VOR radial/distance  VOR name  Freq  Var
ATLr193/21.8ATLANTA VORTAC116.9005W
PDKr200/37.7PEACHTREE VOR/DME116.6005W
LGCr069/38.0LAGRANGE VORTAC115.6001E

 
NDB name  Hdg/Dist  Freq  Var  ID
PECAT201/2.031605WFFC ..-. ..-. -.-.
COWETA COUNTY089/10.923403WEQQ . --.- --.-
PINE MOUNTAIN039/31.827203WPIM .--. .. --
CARROLLTON123/36.427804WGPQ --. .--. --.-

Airport Services

Airframe service: NONE
Powerplant service: NONE

Runway Information

Runway NE/SW

Dimensions: 2400 x 100 ft. / 732 x 30 m
Surface: turf
RUNWAY NE  RUNWAY SW
Traffic pattern: leftleft
Obstructions: trees, 700 ft. from runwaytrees, 1500 ft. from runway

Airport Ownership and Management from official FAA records

Ownership: Privately-owned
Owner: KENLEY PARK PROP OWNERS ASSN
125 KENLEY DR
BROOKS, GA 30205
Phone (404) 276-3924
Manager: CHAIRMAN - BOARD OF DIRECTORS
KENLEY PARK PROP OWNERS ASSN, 125 KENLEY DR
BROOKS, GA 30205
Phone (404) 276-3924

Airport Operational Statistics

Aircraft based on the field: 5
Single engine airplanes: 2
Multi engine airplanes: 3
    

Additional Remarks

FOR CD CTC ATLANTA APCH AT 678-364-6131.

Instrument Procedures

There are no published instrument procedures at GA61.

Some nearby airports with instrument procedures:

KFFC - Atlanta Regional Airport-Falcon Field (7 nm NW)
KHMP - Atlanta Speedway Airport (11 nm NE)
6A2 - Griffin-Spalding County Airport (11 nm E)
KCCO - Newnan Coweta County Airport (14 nm W)
KOPN - Thomaston-Upson County Airport (22 nm SE)
 
Loc | Ops | Rwys | IFR | FBO | Links
Com | Nav | Svcs | Stats | Notes
Area around GA61 (Kenley Field Airport)
 
Road maps at: MapQuest Bing Google
 
Aerial photo
No photo
 
Sectional chart

 
Airport distance calculator
Flying to Kenley Field Airport? Find the distance to fly.

From to GA61

Sunrise and sunset
Times for 30-Jul-2021
 Local
(UTC-4)
 Zulu
(UTC)
Morning civil twilight06:2310:23
Sunrise06:5010:50
Sunset20:3800:38
Evening civil twilight21:0601:06

Current date and time
Zulu (UTC)  30-Jul-2021 23:39:22
Local (UTC-4)  30-Jul-2021 19:39:22
 
METAR
KFFC 
6nm NW 
302253Z AUTO 28004KT 9SM CLR 33/24 A2999 RMK AO2 SLP146 T03280239
KHMP 
11nm NE 
302315Z AUTO 00000KT 10SM CLR 31/25 A3001 RMK AO2 LTG DSNT N T03110248
K6A2 
11nm E 
302315Z AUTO 00000KT 10SM CLR 31/24 A3000 RMK AO2
KCCO 
14nm W 
302315Z AUTO 00000KT 10SM CLR 33/23 A2999 RMK AO2 LTG DSNT N T03270234
TAF
KATL 
22nm N 
302147Z 3022/3124 28010KT P6SM FEW040 SCT200 FM302300 28012G18KT P6SM VCSH SCT150 TEMPO 3023/3102 4SM TSRA BR BKN050CB FM310300 30005KT P6SM SCT250 FM311700 30007KT P6SM FEW050
NOTAMs
Click for the latest NOTAMs
NOTAMs are issued by the DoD/FAA and will open in a separate window not controlled by AirNav.

 

 
 

Would you like to see your business listed on this page?

 If your business provides an interesting product or service to pilots, flight crews, aircraft, or users of the Kenley Field Airport, you should consider listing it here.  To start the listing process, click on the button below
 
Add a business
 

Other Pages about Kenley Field Airport

Update a link
 
Copyright © AirNav, LLC. All rights reserved. Privacy Policy  Contact